Regional Weather Roundup
Issued by NWS Sterling, VA

Home | Current Version | Previous Version | Text Only | Print | Product List | Glossary On
Versions: 1 2 3 4 5 6 7 8 9 10 11 12 13 14 15 16 17 18 19 20 21 22 23 24 25 26 27 28 29 30 31 32 33 34 35 36 37 38 39 40 41 42 43 44 45 46 47 48 49 50
000
ASUS41 KLWX 211210
RWRLWX

REGIONAL WEATHER ROUNDUP
NATIONAL WEATHER SERVICE BALTIMORE MD/WASHINGTON DC
800 AM EDT TUE MAY 21 2019

Note: "FAIR" indicates few or no clouds below 12,000 feet
with no significant weather and/or obstructions to visibility.
 TC=TEMPERATURE CELSIUS

 * =Non NWS site. Station does not report precipitation (e.g. rain,
    snow, etc.), thunder, or fog.

DCZ001-MDZ009-015-VAZ040>042-051-053>054-211300-
WASHINGTON METRO

CITY           SKY/WX    TMP DP  RH WIND       PRES   REMARKS
WASHINGTON NAT FAIR      63  45  51 NW15      30.02R
DULLES         FAIR      60  42  51 NW12G21   30.04R
ANDREWS AFB    FAIR      63  47  57 N14       30.00R
FT BELVOIR     FAIR      64  45  50 NW15G21   30.02R
QUANTICO       FAIR      64  49  57 N15       30.03R
COLLEGE PARK*  FAIR      61  45  56 NW6       30.02R
LEESBURG*      FAIR      59  46  63 N12G25    30.06R
MANASSAS*      FAIR      61  46  57 N15       30.04R
GAITHERSBURG*  FAIR      58  44  60 NW12G18   30.04R

$$

MDZ006>007-011-014-211300-
BALTIMORE METRO

CITY           SKY/WX    TMP DP  RH WIND       PRES   REMARKS
BWI AIRPORT    FAIR      62  44  51 NW9       30.01R
MD SCIENCE CTR   N/A     63  43  48 MISG      30.02R
MARTIN STATE   MOSUNNY   63  45  51 NW14G21   30.02R
ANNAPOLIS      FAIR      66  48  52 N13       29.99R
ABERDEEN*      MOSUNNY   61  48  63 VRB7      30.01R
FORT MEADE*    FAIR      59  45  58 N9G17     30.04R

$$

MDZ012-015-019>023-211300-
MARYLAND EASTERN SHORE

CITY           SKY/WX    TMP DP  RH WIND       PRES   REMARKS
OCEAN CITY     FAIR      66  53  63 N12       29.95R
SALISBURY      FAIR      65  53  65 N12       29.96R
BAY BRIDGE AP* FAIR      63  46  55 NW13      30.00R
CAMBRIDGE*     SUNNY     66  52  59 N9G18     29.98S
EASTON*        SUNNY     64  50  59 NW9       30.02R

$$

MDZ017>025-211300-
SOUTHERN MARYLAND

CITY           SKY/WX    TMP DP  RH WIND       PRES   REMARKS
PATUXENT RIVER FAIR      67  52  58 N13       29.99R
ST INIGOES     FAIR      70  52  52 VRB5      29.98R
LEONARDTOWN*   FAIR      64  52  63 N6        30.01R

$$

MDZ003>005-211300-
NORTH CENTRAL MARYLAND

CITY           SKY/WX    TMP DP  RH WIND       PRES   REMARKS
FREDERICK*     MOSUNNY   61  45  55 N12G20    30.07R
HAGERSTOWN APT CLOUDY    57  41  55 NW13      30.05R

$$

MDZ501>502-211300-
WESTERN MARYLAND

CITY           SKY/WX    TMP DP  RH WIND       PRES   REMARKS
OAKLAND*       CLOUDY    41  37  87 NW7       30.08R
CUMBERLAND*    FAIR      54  40  59 NW15G21   30.14R

$$

VAZ025>031-211300-
SHENANDOAH VALLEY

CITY           SKY/WX    TMP DP  RH WIND       PRES   REMARKS
WINCHESTER*    CLOUDY    55  43  62 NW12      30.08R
FRONT ROYAL*   CLOUDY    57  46  67 N8        30.05R
LURAY*         CLOUDY    63  48  59 N3        30.04R
NEW MARKET*    CLOUDY    61  50  67 CALM      30.03S
STAUNTON*      FAIR      61  52  71 N5        30.05S
WAYNESBORO*    FAIR      61  52  73 N9        30.04R

$$

WVZ021-048>050-054>055-211300-
EASTERN WEST VIRGINIA PANHANDLE

CITY           SKY/WX    TMP DP  RH WIND       PRES   REMARKS
MARTINSBURG    CLOUDY    57  43  59 N9        30.05R
PETERSBURG*    CLOUDY    56  45  65 N6        30.07R

$$

VAZ036>039-050-211300-
CENTRAL FOOTHILLS

CITY           SKY/WX    TMP DP  RH WIND       PRES   REMARKS
CHARLOTTESVILL FAIR      67  52  58 N5        30.01R
CULPEPER*      FAIR      63  48  58 N8        30.04R
ORANGE*        FAIR      61  50  67 N10       30.02R
GORDONSVILLE*  FAIR      64  54  70 NE6       30.00S
WARRENTON*     FAIR      63  47  54 N12       30.03R

$$

VAZ055>057-211300-
NORTH AND CENTRAL PIEDMONT

CITY           SKY/WX    TMP DP  RH WIND       PRES   REMARKS
FREDERICKSBRG* FAIR      64  52  64 N12       30.01R
STAFFORD*      FAIR      64  51  61 N13       30.05R

$$

NCZ024-NYZ072-PAZ021-071-VAZ022-071-211300-
OTHER REGIONAL OBSERVATIONS

CITY           SKY/WX    TMP DP  RH WIND       PRES   REMARKS
NEW YORK CITY  FAIR      57  40  52 NW13G21   29.96R
PHILADELPHIA   PTSUNNY   61  42  49 NW13G23   29.97R
PITTSBURGH     PTSUNNY   47  38  71 N8        30.13S
ROANOKE        FAIR      63  53  70 NW6       30.06R
RICHMOND       FAIR      67  55  65 N10       30.00R
RALEIGH        FAIR      71  60  68 N7        29.99R

$$

ANZ530>537-211300-
MARINE OBSERVATIONS

STATION/POSITION TIME  TEMP    WIND        PRES
                       AIR SEA DIR/SP/G
                 (UTC) (F)     (DEG/KT/KT) (MB)
THOMAS PT LIGHT  1200   62 67  340/ 15/ 17 1016.5R
BALT KEY BRIDGE  1148   61     330/ 14/ 16 1015.8R
COVE POINT       1148   64      10/ 13/ 23 1016.0R
LEWISETTA        1142   67 70  350/ 11/ 16 1015.5R
SOLOMONS ISLAND  1148   65 69  340/  9/ 13 1014.9R
PINEY POINT      1142          360/ 14/ 15   N/A

$$




USA.gov is the U.S. government's official web portal to all federal, state and local government web resources and services.